Date,TemperatureHighF,TemperatureAvgF,TemperatureLowF,DewpointHighF,DewpointAvgF,DewpointLowF,HumidityHigh,HumidityAvg,HumidityLow,PressureMaxIn,PressureMinIn,WindSpeedMaxMPH,WindSpeedAvgMPH,GustSpeedMaxMPH,PrecipitationSumIn
2013-1-1,32.2,24.3,11.0,27.0,13.0,1.0,88,64,38,29.86,29.61,27,11,33,0.00
2013-1-2,19.6,11.4,2.4,5.0,-0.1,-7.0,75,61,48,30.04,29.84,26,10,32,0.00
2013-1-3,21.1,10.4,0.4,4.0,-1.3,-8.0,72,60,46,30.10,29.96,14,6,21,0.00
2013-1-4,33.8,18.4,2.8,26.0,12.6,0.0,89,78,64,29.96,29.73,13,3,21,0.00
2013-1-18,16.4,14.2,12.1,3.0,-3.6,-9.0,61,46,36,30.42,30.31,24,6,29,0.00
2013-1-19,40.3,31.0,13.7,30.0,23.4,4.0,94,74,59,30.39,29.90,27,7,34,0.00
2013-1-20,46.7,40.0,26.1,38.0,28.6,11.0,91,66,38,29.89,29.45,27,10,38,0.00
2013-1-21,24.7,20.4,15.0,18.0,3.6,-3.0,89,50,32,30.06,29.83,23,8,30,0.00
2013-1-22,21.3,13.8,9.1,18.0,4.9,-12.0,87,69,37,30.03,29.77,22,6,33,0.00
2013-1-23,8.5,2.8,-0.9,-10.0,-14.0,-17.0,53,46,38,30.09,30.02,25,13,32,0.00
2013-1-24,11.2,4.0,-3.2,-8.0,-12.6,-17.0,59,47,32,30.09,29.92,28,12,37,0.00
2013-1-25,18.3,10.8,2.9,1.0,-3.5,-9.0,67,54,37,30.21,30.08,20,8,27,0.00
2013-1-26,21.5,14.9,10.0,2.0,-3.4,-7.0,61,45,30,30.12,29.98,19,9,30,0.00
2013-1-27,23.3,15.7,10.0,3.0,0.4,-4.0,60,51,40,30.42,30.12,34,11,34,0.00
2013-1-28,27.3,19.6,9.8,21.0,6.3,-3.0,92,60,29,30.44,30.10,8,2,14,0.00
2013-1-29,38.0,27.6,18.3,35.0,24.4,16.0,92,87,76,30.24,30.09,5,1,11,0.03
2013-1-30,52.9,46.1,38.5,53.0,44.9,35.0,99,95,87,30.19,29.48,32,12,36,0.17
2013-1-31,55.9,46.9,32.0,55.0,38.9,14.0,99,76,47,29.47,28.87,39,21,60,0.08
2013-2-1,31.7,24.9,16.0,17.0,7.7,0.0,58,48,37,30.03,29.43,32,15,36,0.00
2013-2-2,24.3,18.8,11.7,19.0,6.6,-2.0,90,60,39,30.22,30.04,18,5,29,0.00
2013-2-3,28.1,24.4,20.8,22.0,18.7,14.0,94,79,66,30.08,29.68,18,8,22,0.00
2013-2-4,26.7,21.8,16.7,15.0,7.2,-5.0,77,55,38,29.88,29.63,27,13,36,0.00
2013-2-5,24.4,17.0,11.2,8.0,-0.4,-6.0,73,48,29,30.05,29.88,19,5,25,0.00
2013-2-6,36.8,26.0,15.4,28.0,15.6,-6.0,89,67,32,30.29,29.93,16,6,28,0.00
2013-2-7,17.8,12.7,8.1,-2.0,-6.9,-13.0,61,43,25,30.61,30.29,15,5,22,0.00
2013-2-8,23.2,16.6,11.0,22.0,11.9,-4.0,94,83,51,30.62,29.88,30,12,46,0.00
2013-2-9,17.9,14.5,11.1,15.0,11.6,9.0,93,88,71,30.08,29.64,43,21,56,0.01
2013-2-10,33.1,22.2,14.4,17.0,5.9,2.0,79,52,28,30.37,30.09,23,10,31,0.00
2013-2-11,41.2,27.6,9.8,40.0,24.8,7.0,96,89,68,30.37,29.58,11,1,19,0.60
2013-2-12,42.5,36.6,31.9,34.0,30.4,28.0,95,79,59,29.78,29.51,19,7,28,0.01
2013-2-13,40.8,34.9,30.2,29.0,25.9,23.0,87,70,49,29.82,29.74,18,4,24,0.00
2013-2-14,38.8,32.2,23.8,25.0,20.5,16.0,88,64,41,30.02,29.72,19,6,24,0.00
2013-2-15,44.3,34.1,23.4,39.0,30.9,21.0,95,88,77,30.02,29.93,24,4,29,0.00
2013-2-16,37.1,32.2,26.5,33.0,29.7,24.0,96,91,82,29.95,29.76,19,6,25,0.00
2013-2-17,26.3,22.1,18.2,23.0,15.9,7.0,88,77,58,29.75,29.08,46,22,57,0.00
2013-2-18,31.4,22.0,14.1,8.0,3.9,-1.0,58,46,33,30.02,29.38,39,18,48,0.00
2013-2-19,42.6,31.5,18.1,40.0,16.8,-1.0,91,58,26,30.11,29.64,18,5,26,0.29
2013-2-20,44.6,36.7,28.5,43.0,28.7,18.0,94,74,56,29.63,29.42,20,10,27,0.36
2013-2-21,34.3,27.5,23.1,27.0,18.1,11.0,85,68,55,30.11,29.63,19,10,27,0.00
2013-2-22,37.7,32.5,26.7,26.0,23.3,21.0,83,70,53,30.39,30.12,20,5,26,0.00
2013-2-23,35.6,31.8,26.8,31.0,27.7,22.0,92,85,79,30.38,30.06,21,6,21,0.00
2013-2-24,32.0,30.6,28.8,30.0,28.9,26.0,94,93,89,30.07,29.80,10,5,18,0.00
2013-2-25,39.8,30.3,22.3,26.0,20.5,13.0,92,69,36,30.26,29.91,11,3,15,0.08
2013-2-26,42.7,33.2,24.1,32.0,26.8,22.0,91,78,52,30.38,30.27,9,1,11,0.00
2013-2-27,39.0,34.5,28.4,34.0,31.2,26.0,98,87,75,30.29,29.73,30,15,39,0.07
2013-2-28,41.9,38.6,33.0,42.0,38.3,32.0,99,99,97,29.72,29.54,24,9,31,0.10
2013-3-1,34.3,32.9,32.1,33.0,31.8,30.0,98,95,89,29.66,29.52,15,7,22,0.04
2013-3-2,36.0,33.1,31.2,33.0,30.9,29.0,98,91,77,29.65,29.60,16,8,22,0.05
2013-3-3,40.9,36.4,32.9,34.0,32.1,29.0,96,85,69,29.61,29.51,20,6,21,0.02
2013-3-4,35.0,32.7,30.6,32.0,29.0,26.0,94,86,76,29.66,29.48,21,11,24,0.01
2013-3-5,42.9,37.2,33.7,35.0,32.9,32.0,93,85,67,30.13,29.67,18,10,24,0.01
2013-3-6,37.5,34.7,33.1,33.0,29.7,27.0,91,82,76,30.28,30.14,26,7,32,0.01
2013-3-7,37.7,34.8,33.0,28.0,27.0,26.0,80,74,64,30.23,30.08,30,17,37,0.00
2013-3-8,47.7,37.7,30.2,29.0,24.9,21.0,94,62,36,30.20,30.04,31,15,36,0.00
2013-3-9,41.9,35.6,30.2,30.0,26.7,24.0,82,70,56,30.39,30.20,16,8,26,0.00
2013-3-10,35.9,31.9,26.2,32.0,27.7,24.0,92,84,75,30.46,30.33,12,5,14,0.00
2013-3-11,42.0,39.4,36.0,41.0,36.9,33.0,96,90,86,30.35,30.20,20,9,23,0.00
2013-3-12,47.9,44.9,42.1,46.0,43.5,40.0,98,94,88,30.20,29.82,22,10,31,0.31
2013-3-13,48.4,44.1,35.9,48.0,40.7,28.0,99,88,67,29.79,29.66,20,8,34,0.12
2013-3-14,41.6,33.8,22.4,31.0,26.1,16.0,94,74,51,29.72,29.62,24,7,30,0.00
2013-3-15,34.8,25.9,18.1,20.0,13.0,8.0,79,59,34,29.79,29.62,24,9,28,0.00
2013-3-16,35.4,28.9,23.8,23.0,14.9,9.0,87,59,35,29.91,29.63,18,6,23,0.00
2013-3-17,30.6,24.6,17.2,14.0,5.9,-3.0,81,47,28,30.32,29.91,27,10,36,0.00
2013-3-18,34.1,23.4,11.1,19.0,5.1,-2.0,71,48,23,30.46,30.31,16,4,23,0.00
2013-3-19,33.4,28.8,25.4,29.0,25.3,16.0,96,88,59,30.32,29.63,24,8,30,0.00
2013-3-20,35.2,27.6,20.5,28.0,22.6,18.0,93,82,66,29.73,29.60,15,8,30,0.03
2013-3-21,39.6,32.1,25.1,29.0,22.0,13.0,90,69,36,29.79,29.62,10,4,16,0.00
2013-3-22,39.3,30.6,22.7,24.0,19.0,15.0,92,65,39,29.65,29.59,15,6,23,0.00
2013-3-23,40.5,33.7,26.3,26.0,21.3,18.0,71,61,47,29.64,29.47,31,12,34,0.00
2013-3-24,45.3,38.2,31.7,27.0,25.3,23.0,77,61,43,29.79,29.62,26,8,28,0.00
2013-3-25,42.7,36.9,27.9,33.0,30.0,25.0,90,76,64,29.78,29.60,15,5,20,0.00
2013-3-26,46.6,39.7,32.1,30.0,26.5,24.0,75,60,42,29.72,29.55,15,7,27,0.00
2013-3-27,41.7,38.1,33.1,38.0,32.9,27.0,91,81,69,29.86,29.70,15,6,22,0.79
2013-3-28,48.8,40.7,35.2,34.0,32.1,29.0,86,73,52,29.97,29.86,13,5,15,0.00
2013-3-29,51.2,43.6,37.0,36.0,32.6,30.0,84,66,48,30.01,29.94,15,5,24,0.00
2013-3-30,51.0,41.1,32.7,34.0,28.2,17.0,84,63,26,30.09,29.98,16,3,25,0.00
2013-3-31,50.7,38.7,26.9,38.0,25.5,17.0,87,63,27,30.14,29.90,9,2,18,0.00
2013-4-1,48.1,42.1,35.2,42.0,38.2,26.0,95,86,68,29.89,29.49,23,7,31,0.82
2013-4-2,35.8,31.6,28.2,22.0,15.9,9.0,68,53,33,29.83,29.66,18,10,28,0.00
2013-4-3,41.6,34.7,29.3,21.0,15.9,11.0,71,48,33,30.02,29.80,33,16,44,0.00
2013-4-4,47.2,38.4,31.0,36.0,18.9,8.0,81,48,21,30.21,29.99,27,13,34,0.00
2013-4-5,47.0,42.5,38.0,38.0,34.3,25.0,83,73,44,29.99,29.67,23,12,37,0.00
2013-4-6,39.8,33.7,28.6,28.0,10.7,2.0,68,41,22,30.36,29.80,28,13,43,0.00
2013-4-7,44.8,38.2,25.3,39.0,27.5,9.0,86,66,46,30.38,30.00,24,4,24,0.00
2013-4-8,58.2,47.4,38.0,40.0,36.0,33.0,93,68,41,30.17,29.92,22,6,30,0.00
2013-4-9,43.9,41.3,37.8,41.0,38.8,35.0,95,91,76,30.16,29.91,9,1,10,0.21
2013-4-10,50.3,42.9,37.9,46.0,40.9,37.0,96,92,81,30.02,29.90,8,2,14,0.16
2013-4-11,49.0,42.9,38.9,42.0,30.3,15.0,96,65,26,30.21,29.88,24,6,28,0.03
2013-4-12,38.7,35.2,33.3,33.0,24.1,15.0,94,67,40,30.28,29.91,10,2,13,0.30
2013-4-13,43.9,37.9,33.3,37.0,34.4,32.0,95,87,74,29.94,29.80,13,4,16,0.10
2013-4-14,49.2,41.1,35.7,41.0,38.2,34.0,95,90,72,30.19,29.92,15,1,19,0.27
2013-4-15,47.2,39.9,32.4,40.0,35.9,30.0,96,86,73,30.46,30.19,8,2,12,0.00
2013-4-16,50.2,44.8,39.9,45.0,40.4,37.0,94,84,64,30.46,29.97,16,5,28,0.04
2013-4-17,59.1,51.5,44.0,49.0,32.6,22.0,91,52,25,30.37,29.97,25,12,30,0.00
2013-4-18,46.5,42.2,33.0,38.0,29.6,20.0,83,63,37,30.50,30.22,10,2,19,0.00
2013-4-19,60.6,51.4,44.0,56.0,48.8,38.0,96,91,74,30.21,29.69,18,6,28,0.00
2013-4-20,56.9,51.3,45.9,56.0,43.7,27.0,97,77,42,30.14,29.60,16,8,31,0.34
2013-4-21,49.3,41.6,33.3,28.0,22.4,14.0,78,48,25,30.72,30.15,20,9,26,0.00
2013-4-22,46.0,39.3,29.8,37.0,28.3,18.0,85,66,44,30.84,30.69,15,6,19,0.00
2013-4-23,42.8,40.0,36.0,42.0,37.0,31.0,97,89,73,30.68,30.22,19,7,22,0.01
2013-4-24,56.6,48.4,42.8,54.0,47.1,42.0,98,95,88,30.22,29.77,18,8,27,0.23
2013-4-25,60.5,51.9,44.8,48.0,37.7,27.0,96,64,29,30.30,29.83,21,8,27,0.05
2013-4-26,52.3,45.1,34.2,37.0,33.1,29.0,86,64,46,30.46,30.30,12,5,16,0.00
2013-4-27,55.0,43.8,33.5,40.0,35.4,30.0,94,75,42,30.45,30.34,7,2,10,0.00
2013-4-28,59.4,48.1,35.7,43.0,37.9,34.0,94,71,40,30.37,30.28,9,2,14,0.00
2013-4-29,60.0,47.6,35.8,46.0,40.0,34.0,95,77,42,30.32,30.26,7,1,11,0.00
2013-4-30,62.1,48.9,36.1,48.0,38.3,32.0,96,72,32,30.40,30.28,7,2,12,0.00
2013-5-1,59.3,48.1,35.1,43.0,35.1,27.0,94,66,30,30.50,30.40,12,3,15,0.00
2013-5-2,59.5,47.3,38.5,46.0,39.2,32.0,95,75,37,30.55,30.45,7,1,14,0.00
2013-5-3,62.3,49.0,42.9,46.0,40.6,37.0,90,73,54,30.58,30.41,10,3,14,0.00
2013-5-4,55.6,45.8,37.9,41.0,38.6,36.0,94,77,51,30.43,30.36,10,2,13,0.00
2013-5-5,52.7,44.8,34.6,42.0,38.2,33.0,96,79,59,30.37,30.29,13,4,18,0.00
2013-5-6,57.0,45.3,34.3,48.0,40.9,33.0,96,85,66,30.31,30.21,11,3,15,0.00
2013-5-7,62.0,50.3,42.4,52.0,46.9,41.0,96,89,67,30.21,30.14,13,4,15,0.00
2013-5-8,69.4,55.0,44.1,61.0,51.7,43.0,97,89,72,30.29,30.18,9,2,14,0.00
2013-5-9,54.1,51.9,50.1,53.0,50.5,49.0,97,95,93,30.17,29.94,5,1,8,0.31
2013-5-10,62.3,53.3,48.6,55.0,51.2,48.0,97,93,78,30.00,29.91,9,2,14,0.00
2013-5-11,57.5,52.7,47.8,55.0,51.3,47.0,97,95,91,29.98,29.73,14,3,20,0.30
2013-5-12,59.7,53.6,50.3,57.0,52.0,44.0,97,94,73,29.73,29.56,18,3,24,0.22
2013-5-13,54.2,48.6,42.7,45.0,37.1,32.0,94,66,47,30.01,29.74,20,7,28,0.00
2013-5-14,53.8,48.2,43.2,41.0,34.7,29.0,86,61,42,30.03,29.95,18,6,23,0.00
2013-5-15,57.8,49.0,39.0,47.0,37.1,29.0,94,68,34,30.03,29.70,18,4,22,0.32
2013-5-16,66.2,57.0,48.5,55.0,48.5,42.0,96,76,48,29.79,29.59,19,6,21,0.00
2013-5-17,62.3,54.5,44.4,45.0,40.5,35.0,88,61,38,30.22,29.80,24,9,30,0.00
2013-5-18,55.7,48.4,40.3,45.0,41.6,38.0,94,78,58,30.38,30.22,7,1,13,0.00
2013-5-19,56.6,49.2,42.8,48.0,44.8,41.0,96,85,69,30.42,30.28,7,1,9,0.03
2013-5-20,64.3,54.7,48.9,59.0,52.6,48.0,96,92,81,30.27,29.95,6,1,14,0.85
2013-5-21,52.6,48.6,47.3,52.0,47.3,46.0,96,95,94,30.10,30.00,7,1,9,0.33
2013-5-22,53.0,49.2,47.3,50.0,47.8,46.0,97,95,90,30.12,29.95,7,1,10,0.75
2013-5-23,58.9,53.1,47.3,58.0,52.1,46.0,97,96,90,29.99,29.86,10,2,15,0.01
2013-5-24,60.9,56.8,51.0,60.0,55.8,48.0,98,96,89,29.86,29.67,27,7,28,1.44
2013-5-25,51.3,49.8,47.9,50.0,48.3,47.0,97,95,90,29.83,29.68,20,7,29,0.28
2013-5-26,54.3,48.6,45.6,47.0,45.4,41.0,97,89,70,29.96,29.62,18,5,26,0.31
2013-5-27,65.5,53.7,42.2,43.0,37.3,29.0,87,58,26,30.18,29.97,26,10,33,0.00
2013-5-28,65.3,52.7,39.3,45.0,41.4,38.0,95,69,37,30.26,30.18,12,2,18,0.00
2013-5-29,54.3,50.8,47.2,53.0,49.7,45.0,97,96,92,30.25,30.02,6,1,11,0.14
2013-5-30,77.9,63.3,51.0,65.0,57.5,50.0,98,83,53,30.04,29.99,16,2,23,0.00
2013-5-31,81.0,67.8,55.9,65.0,60.1,55.0,97,78,56,30.06,29.90,7,1,18,0.00
2013-6-1,77.2,67.0,58.3,67.0,60.6,56.0,94,80,70,29.93,29.83,12,3,18,0.00
2013-6-2,73.6,64.7,59.5,64.0,60.3,57.0,96,85,70,29.84,29.73,18,4,29,0.07
2013-6-3,66.6,60.5,57.1,62.0,58.3,56.0,97,92,84,29.85,29.74,11,4,20,0.02
2013-6-4,64.3,58.9,50.9,58.0,46.8,40.0,96,67,43,30.05,29.78,24,7,30,0.00
2013-6-5,64.0,56.4,46.8,50.0,44.8,38.0,89,66,39,30.18,30.05,16,5,23,0.00
2013-6-6,68.0,57.1,46.1,54.0,48.3,43.0,95,75,41,30.24,30.17,5,1,8,0.00
2013-6-7,59.1,54.4,51.0,52.0,49.8,43.0,96,85,55,30.19,29.97,6,1,9,0.50
2013-6-8,65.4,57.7,51.4,59.0,54.8,50.0,96,90,76,29.98,29.64,22,5,26,1.49
2013-6-9,65.2,59.6,55.4,58.0,55.7,53.0,95,87,73,30.16,29.98,8,1,13,0.00
2013-6-10,67.5,58.4,52.5,55.0,53.3,51.0,96,84,63,30.24,30.09,7,1,12,0.00
2013-6-11,55.8,53.3,52.0,54.0,52.0,51.0,97,95,94,30.08,29.53,9,1,14,1.10
2013-6-12,59.0,56.1,52.8,57.0,54.1,52.0,97,92,84,29.74,29.50,20,9,28,0.07
2013-6-13,67.3,58.3,52.9,55.0,52.9,51.0,95,83,62,29.80,29.74,9,2,13,0.04
2013-6-14,65.8,57.7,53.0,57.0,52.5,47.0,95,84,57,29.76,29.69,7,1,9,0.01
2013-6-15,75.1,62.3,50.8,53.0,47.6,40.0,96,64,29,29.90,29.74,18,6,23,0.01
2013-6-16,72.7,61.2,50.7,57.0,53.3,49.0,95,77,47,29.92,29.73,7,1,12,0.00
2013-6-17,71.7,62.8,54.5,63.0,58.1,53.0,97,85,65,29.87,29.73,14,3,16,0.34
2013-6-18,66.3,60.8,56.2,59.0,56.6,52.0,97,86,66,29.99,29.85,6,1,9,0.00
2013-6-19,73.2,61.6,51.2,56.0,50.0,42.0,95,70,36,30.14,29.93,15,4,19,0.00
2013-6-20,74.0,60.8,49.3,56.0,51.7,47.0,94,74,48,30.26,30.15,10,2,13,0.00
2013-6-21,73.4,61.8,51.6,60.0,55.5,50.0,96,81,55,30.24,30.19,7,1,13,0.00
2013-6-22,73.0,63.1,56.2,63.0,58.8,55.0,95,86,62,30.22,30.13,6,1,10,0.00
2013-6-23,71.5,64.8,60.7,65.0,61.4,59.0,95,88,78,30.17,29.96,9,2,13,0.02
2013-6-24,86.8,74.0,63.3,71.0,66.3,62.0,96,78,53,29.95,29.82,14,4,21,0.00
2013-6-25,80.4,73.3,65.5,69.0,66.0,64.0,96,79,60,29.85,29.73,41,3,54,0.59
2013-6-26,75.2,64.5,56.7,71.0,62.9,56.0,97,94,84,29.90,29.70,5,1,11,0.25
2013-6-27,59.9,56.1,53.8,58.0,54.6,52.0,97,95,91,29.91,29.87,4,1,7,0.09
2013-6-28,62.0,58.2,54.7,62.0,57.6,54.0,98,97,97,29.89,29.59,5,1,13,0.64
2013-6-29,67.4,63.0,60.0,66.0,62.3,60.0,98,97,91,29.73,29.59,11,2,15,0.05
2013-6-30,66.4,63.0,59.7,65.0,62.3,59.0,98,97,94,29.96,29.73,9,3,14,0.00
2013-7-1,74.0,65.2,61.7,70.0,64.1,61.0,98,96,86,30.13,29.95,7,1,11,0.10
2013-7-2,64.9,60.6,58.1,64.0,59.7,57.0,98,97,95,30.24,30.11,8,0,8,0.51
2013-7-3,72.7,62.6,57.4,67.0,60.4,57.0,98,92,79,30.22,30.13,8,2,14,0.01
2013-7-4,83.8,71.4,61.9,73.0,67.4,61.0,98,88,70,30.17,30.06,8,2,14,0.00
2013-7-5,85.0,75.0,65.6,73.0,69.4,65.0,98,83,62,30.11,30.00,14,3,19,0.06
2013-7-6,86.1,76.4,68.2,74.0,69.6,66.0,98,81,55,30.03,29.92,19,3,22,0.00
2013-7-7,86.5,76.5,65.7,68.0,64.1,60.0,89,68,41,29.96,29.90,18,5,25,0.00
2013-7-8,74.0,67.4,62.0,68.0,64.1,58.0,96,89,76,30.10,29.91,8,0,11,0.84
2013-7-9,67.2,63.2,60.6,64.0,61.3,59.0,96,93,87,30.15,30.09,3,0,6,0.03
2013-7-10,65.8,61.6,59.6,62.0,60.1,59.0,98,95,87,30.12,29.80,4,0,8,0.04
2013-7-11,78.8,68.9,64.0,71.0,66.8,64.0,98,93,71,29.97,29.77,10,2,14,0.01
2013-7-12,80.1,68.7,59.4,65.0,59.1,57.0,93,73,50,30.23,29.97,7,2,10,0.00
2013-7-13,78.2,67.6,57.9,64.0,60.4,57.0,96,80,56,30.33,30.23,8,2,11,0.00
2013-7-14,85.1,72.3,61.6,72.0,65.6,61.0,97,81,60,30.30,30.19,6,1,11,0.00
2013-7-15,87.6,75.2,65.2,70.0,66.5,63.0,97,76,46,30.19,30.06,13,2,15,0.00
2013-7-16,88.4,77.7,66.5,73.0,68.1,64.0,91,74,55,30.20,30.08,7,1,8,0.04
2013-7-17,75.1,69.8,62.1,69.0,65.4,59.0,95,86,78,30.20,29.95,11,3,22,0.24
2013-7-18,84.7,74.3,68.3,70.0,66.0,59.0,97,78,44,30.01,29.92,11,2,14,0.01
2013-7-19,80.4,72.6,66.1,73.0,69.0,65.0,96,88,73,29.97,29.65,11,4,23,0.00
2013-7-20,79.0,74.6,69.3,72.0,68.8,65.0,94,82,71,29.78,29.61,11,3,18,0.03
2013-7-21,74.6,67.2,59.4,66.0,57.6,55.0,93,73,54,30.05,29.78,9,1,13,0.00
2013-7-22,72.8,64.0,57.1,64.0,58.3,53.0,97,83,51,30.07,29.96,5,1,8,0.00
2013-7-23,67.3,63.7,60.2,67.0,62.8,59.0,98,97,94,29.96,29.55,5,0,5,0.29
2013-7-24,75.3,67.6,60.9,72.0,64.2,53.0,98,89,68,29.98,29.58,16,4,21,0.00
2013-7-25,69.8,62.4,56.6,61.0,55.1,49.0,95,77,58,30.14,29.98,16,4,20,0.07
2013-7-26,67.2,64.3,59.6,65.0,62.6,58.0,96,94,90,30.09,29.87,20,9,23,0.36
2013-7-27,74.5,67.4,60.9,65.0,62.6,60.0,96,85,70,30.07,29.89,13,4,19,0.04
2013-7-28,70.7,63.7,58.6,66.0,61.8,58.0,98,94,81,30.08,30.03,4,0,10,0.02
2013-7-29,72.2,64.6,60.5,66.0,62.4,59.0,97,92,80,30.09,30.01,5,1,14,0.09
2013-7-30,76.7,67.5,60.7,66.0,62.2,58.0,98,84,52,30.07,30.01,12,2,19,0.00
2013-7-31,76.0,65.6,57.2,62.0,58.9,55.0,96,80,49,30.12,30.06,10,2,15,0.00
2013-8-1,75.3,65.6,57.0,68.0,62.1,56.0,98,89,69,30.07,29.92,7,1,9,0.00
2013-8-2,69.6,64.4,61.9,67.0,63.3,61.0,97,96,90,29.91,29.78,5,1,12,0.44
2013-8-3,71.9,64.7,58.6,65.0,61.2,58.0,98,89,75,29.84,29.74,14,2,19,0.02
2013-8-4,75.5,65.1,57.6,61.0,58.2,54.0,94,79,51,29.82,29.74,15,4,24,0.07
2013-8-5,71.2,62.3,55.9,55.0,52.6,49.0,89,72,51,30.03,29.82,21,7,24,0.00
2013-8-6,72.4,60.7,49.5,57.0,51.6,47.0,94,74,54,30.13,30.03,9,2,16,0.00
2013-8-7,72.9,65.6,51.8,63.0,59.2,51.0,97,81,59,30.22,30.16,8,1,11,0.00
2013-8-8,67.4,63.1,59.3,65.0,61.8,58.0,97,95,91,30.16,30.05,4,1,11,0.65
2013-8-9,69.8,66.8,64.0,69.0,66.1,63.0,98,97,95,30.05,29.73,9,2,18,1.23
2013-8-10,78.0,70.7,63.1,68.0,58.2,48.0,98,69,36,29.99,29.73,19,7,24,0.00
2013-8-11,73.8,63.3,53.0,59.0,53.8,50.0,92,73,47,30.05,29.98,11,3,19,0.00
2013-8-12,75.2,65.3,56.3,62.0,59.1,55.0,95,81,59,30.01,29.92,7,2,14,0.00
2013-8-13,71.5,63.8,57.5,67.0,62.0,56.0,97,93,84,29.93,29.73,9,1,10,0.00
2013-8-14,75.1,65.0,60.1,67.0,59.2,50.0,98,83,51,29.86,29.62,15,3,24,0.00
2013-8-15,71.4,63.1,56.1,59.0,53.7,50.0,93,72,51,30.09,29.87,12,5,21,0.00
2013-8-16,74.3,62.7,53.7,61.0,56.2,53.0,96,81,50,30.20,30.08,11,2,15,0.00
2013-8-17,75.7,64.3,55.0,61.0,56.9,52.0,97,79,49,30.28,30.20,13,3,18,0.00
2013-8-18,73.7,63.0,53.2,62.0,57.5,52.0,97,83,59,30.29,30.06,6,1,11,0.00
2013-8-19,77.3,67.5,57.7,65.0,61.3,57.0,97,82,62,30.06,29.88,8,2,16,0.00
2013-8-20,79.5,69.8,62.0,67.0,63.2,60.0,94,80,64,30.09,29.95,9,2,13,0.00
2013-8-21,80.8,68.8,60.0,68.0,63.0,59.0,96,83,59,30.14,29.99,9,2,14,0.00
2013-8-22,75.4,68.8,60.2,67.0,64.5,59.0,97,87,73,30.00,29.77,9,2,16,0.00
2013-8-23,74.5,68.1,61.5,65.0,57.3,51.0,95,70,44,30.14,29.76,19,9,23,0.00
2013-8-24,75.1,62.5,51.1,56.0,51.0,45.0,95,69,38,30.32,30.17,10,3,13,0.00
2013-8-25,71.1,37.9,52.0,60.0,1.4,-99.9,96,58,56,30.37,30.17,14,3,20,0.00
2013-8-26,71.1,64.0,57.6,64.0,60.9,56.0,97,90,79,30.16,29.88,9,2,20,0.02
2013-8-27,80.5,68.6,60.7,68.0,63.8,60.0,97,86,65,29.92,29.85,10,1,10,0.00
2013-8-28,77.8,65.1,59.9,68.0,62.1,59.0,97,90,71,30.02,29.90,5,1,10,0.03
2013-8-29,67.4,63.2,55.4,64.0,59.7,54.0,97,88,77,30.12,30.00,13,2,18,0.00
2013-8-30,71.5,61.7,53.4,64.0,58.2,52.0,97,88,74,30.03,29.78,11,2,16,0.00
2013-8-31,77.3,67.0,62.4,72.0,65.0,62.0,98,93,78,29.84,29.78,16,1,19,0.14
2013-9-1,80.6,70.5,63.9,72.0,67.8,63.0,98,91,74,29.95,29.78,5,1,8,0.12
2013-9-2,66.9,63.5,60.0,66.0,62.8,59.0,98,97,96,29.95,29.76,6,1,9,2.33
2013-9-3,73.5,67.2,63.4,69.0,65.9,63.0,98,95,84,29.78,29.71,8,2,11,0.01
2013-9-4,74.7,66.9,61.2,65.0,60.1,57.0,98,80,56,29.90,29.74,14,4,21,0.00
2013-9-5,65.6,59.2,52.6,59.0,52.9,44.0,95,80,50,30.14,29.86,13,4,18,0.26
2013-9-6,64.7,55.5,44.3,55.0,46.7,41.0,96,75,43,30.23,30.05,11,4,18,0.00
2013-9-7,67.5,61.4,53.2,59.0,55.9,51.0,94,82,60,30.06,29.80,14,3,18,0.00
2013-9-8,64.1,59.4,49.7,59.0,50.8,40.0,95,75,49,30.07,29.71,23,8,32,0.39
2013-9-9,61.3,53.5,41.9,57.0,46.8,40.0,96,79,49,30.22,30.07,15,4,19,0.00
2013-9-10,63.2,60.3,57.1,60.0,58.0,55.0,97,92,86,30.14,30.06,8,2,15,0.00
2013-9-11,75.4,66.0,59.8,70.0,64.1,59.0,98,94,81,30.07,29.91,9,3,21,0.19
2013-9-12,70.5,65.8,62.8,68.0,64.7,62.0,97,96,90,30.02,29.67,9,2,15,0.16
2013-9-13,71.0,64.0,60.8,67.0,62.9,60.0,98,96,84,29.70,29.59,19,2,27,1.07
2013-9-14,69.0,61.7,54.7,60.0,57.2,52.0,98,86,64,30.02,29.70,12,4,16,0.00
2013-9-15,62.5,56.1,48.0,56.0,51.4,47.0,98,85,60,30.14,30.02,13,3,21,0.00
2013-9-16,63.2,55.5,47.3,57.0,51.0,38.0,97,85,69,30.26,29.98,24,7,24,0.00
2013-9-17,63.7,50.8,39.7,49.0,41.8,37.0,95,73,48,30.40,30.27,19,6,21,0.00
2013-9-18,64.6,53.8,43.4,53.0,47.8,42.0,97,82,56,30.31,30.11,9,2,14,0.00
2013-9-19,70.5,56.9,45.8,54.0,49.6,45.0,97,79,51,30.13,30.03,11,1,14,0.00
2013-9-20,73.3,58.7,48.2,57.0,52.0,47.0,96,81,51,30.12,30.04,7,1,8,0.00
2013-9-21,63.8,59.7,55.9,60.0,57.9,55.0,98,93,86,30.07,29.81,8,2,16,0.00
2013-9-22,64.8,62.1,54.2,63.0,59.4,49.0,96,90,77,29.80,29.62,10,4,21,0.26
2013-9-23,56.1,51.8,47.0,49.0,43.5,41.0,86,74,63,29.93,29.74,21,10,29,0.00
2013-9-24,53.6,50.3,46.0,45.0,43.5,41.0,86,78,69,29.92,29.83,20,8,24,0.01
2013-9-25,59.5,53.5,47.4,50.0,46.6,43.0,92,78,63,29.98,29.86,18,9,21,0.00
2013-9-26,62.4,55.1,46.3,52.0,48.8,44.0,94,80,65,30.13,29.98,21,8,23,0.00
2013-9-27,70.8,59.6,52.7,55.0,52.2,50.0,95,78,53,30.25,30.13,16,4,19,0.00
2013-9-28,68.8,56.5,48.4,56.0,51.5,47.0,96,84,61,30.35,30.25,6,1,8,0.00
2013-9-29,63.0,51.8,43.9,55.0,48.5,43.0,98,89,65,30.29,30.15,7,1,10,0.01
2013-9-30,62.9,53.0,45.5,54.0,49.8,45.0,98,89,67,30.16,29.98,7,1,9,0.00
2013-10-1,74.3,59.2,49.6,55.0,51.2,47.0,96,77,45,29.97,29.82,18,5,22,0.00
2013-10-2,76.8,62.6,51.3,62.0,55.2,50.0,98,79,51,29.89,29.74,13,2,21,0.00
2013-10-3,72.9,60.0,48.4,54.0,49.4,46.0,96,71,41,30.07,29.89,18,3,23,0.00
2013-10-4,69.4,57.7,47.5,54.0,49.7,43.0,95,77,40,30.10,30.03,14,1,14,0.00
2013-10-5,60.6,55.0,48.5,51.0,47.1,44.0,95,75,59,30.17,30.10,5,0,7,0.00
2013-10-6,56.2,50.9,45.5,48.0,43.0,38.0,95,76,53,30.30,30.17,5,1,9,0.06
2013-10-7,64.6,58.2,49.3,64.0,57.1,47.0,98,96,91,30.25,29.81,19,3,35,0.69
2013-10-8,62.3,54.9,42.8,61.0,46.2,39.0,97,74,49,30.41,29.84,21,7,30,0.04
2013-10-9,60.8,47.5,38.8,45.0,40.8,38.0,96,80,49,30.50,30.39,5,1,8,0.00
2013-10-10,61.4,48.7,38.2,50.0,43.7,38.0,98,84,51,30.39,30.22,8,1,11,0.00
2013-10-11,65.0,54.0,45.5,54.0,49.7,45.0,97,86,57,30.21,30.14,7,1,7,0.00
2013-10-12,58.0,53.3,46.4,53.0,49.0,45.0,96,86,69,30.44,30.21,6,1,11,0.00
2013-10-13,57.4,50.5,41.4,48.0,44.4,40.0,96,81,58,30.49,30.41,7,1,11,0.00
2013-10-14,56.5,48.8,38.6,50.0,44.9,38.0,98,87,70,30.41,30.27,8,2,14,0.00
2013-10-15,65.6,56.2,50.9,54.0,51.6,49.0,95,85,64,30.30,30.23,9,1,9,0.00
2013-10-16,57.5,54.9,53.1,55.0,53.4,52.0,97,94,89,30.24,29.91,8,1,8,0.00
2013-10-17,61.7,54.8,50.0,58.0,53.5,49.0,98,95,86,29.92,29.75,7,2,12,0.00
2013-10-18,65.9,57.9,52.3,59.0,52.1,48.0,98,83,54,29.83,29.59,30,4,32,0.30
2013-10-19,59.0,53.6,45.9,51.0,46.1,41.0,89,76,55,29.94,29.79,13,3,20,0.00
2013-10-20,60.6,55.3,48.3,54.0,43.7,33.0,95,68,36,29.95,29.68,22,6,27,0.01
2013-10-21,57.5,50.3,40.1,50.0,42.2,37.0,91,74,53,30.09,29.95,12,4,20,0.00
2013-10-22,61.5,55.2,48.1,55.0,51.1,44.0,93,86,73,30.00,29.70,12,3,16,0.04
2013-10-23,52.3,44.8,36.7,43.0,38.8,33.0,97,81,52,29.78,29.59,4,0,8,0.01
2013-10-24,49.7,45.0,40.1,40.0,33.6,27.0,86,66,44,29.81,29.59,15,7,22,0.00
2013-10-25,49.3,42.9,37.3,35.0,32.1,29.0,84,67,50,30.09,29.82,15,8,22,0.00
2013-10-26,52.2,43.4,33.3,41.0,34.1,27.0,79,70,55,30.13,29.88,16,6,32,0.00
2013-10-27,53.2,46.5,41.6,43.0,38.3,31.0,93,74,57,30.01,29.79,14,5,22,0.12
2013-10-28,52.3,42.5,34.3,42.0,32.8,26.0,85,69,50,30.35,30.01,20,5,36,0.00
2013-10-29,46.1,36.8,29.6,31.0,26.0,18.0,94,67,33,30.46,30.35,12,4,15,0.00
2013-10-30,47.3,37.3,29.1,32.0,29.0,25.0,95,75,43,30.37,30.18,14,3,20,0.00
2013-10-31,57.7,44.9,29.3,57.0,42.5,28.0,96,91,78,30.27,29.81,11,3,27,0.45
2013-11-1,62.7,59.1,56.7,61.0,56.8,53.0,97,92,83,29.80,29.37,26,9,40,0.52
2013-11-2,60.1,52.4,43.7,52.0,47.1,42.0,97,83,58,29.76,29.56,18,3,24,0.00
2013-11-3,47.3,38.7,31.8,40.0,27.2,20.0,88,65,43,30.42,29.77,26,14,30,0.00
2013-11-4,40.1,32.4,26.6,24.0,20.0,17.0,85,62,41,30.73,30.42,14,6,22,0.00
2013-11-5,46.5,36.4,26.8,35.0,30.5,23.0,95,80,62,30.74,30.52,11,2,14,0.00
2013-11-6,52.8,45.7,35.0,50.0,42.4,34.0,97,88,77,30.52,30.02,19,4,21,0.00
2013-11-7,56.1,51.6,40.5,55.0,48.5,33.0,97,89,72,30.01,29.64,15,8,23,0.15
2013-11-8,44.7,39.8,35.3,33.0,27.3,24.0,76,62,47,29.98,29.76,28,10,29,0.00
2013-11-9,43.2,37.4,29.7,28.0,24.5,21.0,88,61,42,30.12,29.98,21,8,28,0.00
2013-11-10,45.0,39.7,31.4,43.0,37.5,27.0,97,91,79,30.10,29.72,9,2,15,0.11
2013-11-11,46.6,41.0,36.8,37.0,33.2,29.0,95,75,58,30.00,29.74,21,6,26,0.01
2013-11-12,46.4,34.3,26.4,34.0,22.2,16.0,78,62,54,30.10,29.83,20,10,32,0.00
2013-11-13,32.9,27.8,23.6,18.0,14.2,12.0,68,57,45,30.22,30.09,14,6,24,0.00
2013-11-14,46.8,35.7,26.2,31.0,25.7,17.0,94,68,48,30.11,29.99,12,4,21,0.00
2013-11-15,49.9,37.4,28.6,38.0,32.0,27.0,95,82,57,30.20,30.09,12,2,13,0.00
2013-11-16,51.6,39.4,32.1,45.0,36.2,30.0,96,88,76,30.36,30.20,7,1,9,0.00
2013-11-17,51.8,45.9,35.0,51.0,43.8,34.0,97,92,80,30.38,29.98,8,2,15,0.02
2013-11-18,57.5,51.8,42.7,57.0,49.9,41.0,98,93,81,29.96,29.49,12,4,26,0.42
2013-11-19,47.1,37.8,32.4,41.0,24.9,18.0,85,60,48,30.18,29.57,30,14,38,0.00
2013-11-20,38.3,32.5,28.9,19.0,15.3,12.0,62,50,34,30.64,30.18,24,11,31,0.00
2013-11-21,41.5,25.4,23.7,30.0,0.4,-99.9,91,59,33,30.65,30.35,12,1,13,0.00
2013-11-22,40.1,35.5,30.8,34.0,28.3,22.0,92,76,50,30.34,29.78,7,1,9,0.00
2013-11-23,39.0,35.3,27.7,37.0,23.9,16.0,95,65,40,29.79,29.66,31,11,39,0.02
2013-11-24,28.7,22.9,19.5,22.0,8.0,3.0,76,53,45,29.97,29.65,34,20,46,0.00
2013-11-25,27.3,21.4,17.2,18.0,3.7,-99.9,74,50,34,30.33,29.97,29,11,35,0.00
2013-11-26,37.2,32.2,25.5,31.0,27.3,16.0,94,82,56,30.33,30.19,19,5,25,0.01
2013-11-27,58.0,50.0,33.0,57.0,49.0,32.0,98,96,88,30.17,29.14,22,6,34,2.75
2013-11-28,39.6,28.3,19.0,37.0,11.7,-99.9,92,61,42,30.39,29.27,28,13,39,0.00
2013-11-29,25.4,20.8,17.4,12.0,9.4,6.0,76,62,43,30.75,30.39,18,8,23,0.00
2013-11-30,34.6,22.7,13.7,29.0,13.8,8.0,85,70,45,30.83,30.45,9,3,15,0.00
2013-12-1,39.1,36.4,33.2,37.0,33.4,27.0,97,89,68,30.44,30.09,11,3,16,0.52
2013-12-2,45.5,41.5,36.5,44.0,40.3,36.0,97,95,91,30.09,29.92,7,2,15,0.52
2013-12-3,41.7,38.1,33.8,39.0,36.5,31.0,97,94,84,29.92,29.84,16,8,20,0.00
2013-12-4,40.9,34.3,27.9,31.0,28.2,26.0,93,79,63,30.23,29.87,19,7,26,0.00
2013-12-5,48.4,38.4,26.8,48.0,36.6,25.0,97,93,86,30.28,29.93,5,1,10,0.02
2013-12-6,49.7,43.4,36.3,49.0,40.5,30.0,98,89,71,30.12,29.86,12,4,13,0.04
2013-12-7,37.3,32.6,25.1,32.0,19.2,10.0,90,59,44,30.42,30.07,25,10,34,0.00
2013-12-8,26.3,22.8,20.8,17.0,6.0,-99.9,76,56,45,30.61,30.41,23,6,30,0.00
2013-12-9,37.9,30.0,24.0,37.0,24.6,11.0,97,82,58,30.57,29.84,14,4,19,0.14
2013-12-10,34.3,28.0,21.9,32.0,25.1,15.0,95,89,72,29.90,29.73,18,5,21,0.00
2013-12-11,28.6,24.3,17.6,18.0,16.3,13.0,85,72,58,30.13,29.91,23,9,27,0.00
2013-12-12,20.8,14.7,10.6,12.0,2.4,-4.0,70,59,43,30.25,30.02,24,8,29,0.00
2013-12-13,23.5,17.0,5.7,12.0,3.6,-6.0,72,57,37,30.39,29.91,29,11,37,0.00
2013-12-14,18.3,9.0,-0.4,16.0,-2.8,-10.0,90,60,39,30.64,30.40,14,4,21,0.00
2013-12-15,23.5,16.5,12.6,22.0,5.7,-99.9,94,81,82,30.39,29.35,27,11,35,0.00
2013-12-16,23.8,15.3,5.6,14.0,6.1,-5.0,94,69,45,30.22,29.68,22,8,30,0.00
2013-12-17,17.3,8.6,-3.6,15.0,3.1,-10.0,93,78,60,30.33,30.05,13,5,16,0.00
2013-12-18,25.3,18.6,11.7,20.0,15.9,9.0,93,89,78,30.03,29.85,18,7,21,0.00
2013-12-19,32.1,20.6,11.6,27.0,-5.1,-99.9,91,66,78,30.10,29.93,10,3,14,0.02
2013-12-20,43.2,33.8,26.9,39.0,31.5,24.0,96,91,82,30.15,29.92,2,0,6,0.09
2013-12-21,37.1,33.9,30.8,36.0,32.9,30.0,97,96,94,29.97,29.85,15,1,15,0.18
2013-12-22,33.7,30.8,28.0,32.0,29.8,27.0,97,96,94,30.10,29.89,13,5,21,0.32
2013-12-23,33.0,31.1,28.7,32.0,30.4,28.0,97,97,96,30.12,29.98,9,4,11,0.00
2013-12-24,33.5,24.7,14.1,32.0,21.2,11.0,97,87,79,30.17,30.07,16,9,23,0.00
2013-12-25,17.9,12.1,7.2,14.0,8.2,3.0,92,84,78,30.58,30.17,21,8,25,0.00
2013-12-26,35.0,23.5,12.0,34.0,21.7,10.0,96,92,90,30.54,30.07,10,3,13,0.00
2013-12-27,31.4,22.5,14.4,28.0,20.3,13.0,94,91,82,30.22,30.12,9,3,12,0.00
2013-12-28,35.7,28.0,18.9,32.0,25.8,18.0,97,91,85,30.18,29.95,10,3,20,0.01
2013-12-29,38.3,29.8,21.7,37.0,28.7,20.0,97,95,93,30.05,29.51,14,2,16,0.64
2013-12-30,31.3,15.5,6.6,30.0,-6.6,-99.9,96,70,72,30.20,29.47,23,9,33,0.00
2013-12-31,11.6,6.3,0.3,5.0,1.3,-4.0,90,80,63,30.20,30.06,12,5,18,0.00
2014-1-1,19.8,10.6,1.5,13.0,-2.8,-99.9,90,71,60,30.43,30.13,25,6,27,0.00
2014-1-2,6.9,-0.8,-4.4,-2.0,-13.8,-99.9,87,73,66,30.48,30.01,29,12,31,0.00